Tiempo cada hora Abryutino

Hoy, 22 Octubre, Jueves

Tiempo Temperatura Precipitaciones Viento Presión Humedad
00:00 +2°C° 0.1 mm 2 mps 751 mmHg 94%
01:00 +2°C° 0.1 mm 3 mps 750 mmHg 93%
02:00 +2°C° 0.1 mm 3 mps 750 mmHg 93%
03:00 +2°C° 0 mm 3 mps 750 mmHg 93%
04:00 +2°C° 0.1 mm 3 mps 750 mmHg 93%
05:00 +2°C° 0.1 mm 3 mps 750 mmHg 93%
06:00 +3°C° 0.1 mm 2 mps 750 mmHg 93%
07:00 +3°C° 0.1 mm 3 mps 750 mmHg 93%
08:00 +3°C° 0.1 mm 3 mps 750 mmHg 92%
09:00 +3°C° 0.1 mm 3 mps 749 mmHg 92%
10:00 +4°C° 0.1 mm 3 mps 749 mmHg 90%
11:00 +4°C° 0.1 mm 3 mps 749 mmHg 88%
12:00 +5°C° 0.1 mm 3 mps 749 mmHg 87%
13:00 +5°C° 0 mm 4 mps 749 mmHg 84%
14:00 +6°C° 0 mm 4 mps 749 mmHg 81%
15:00 +7°C° 0 mm 4 mps 749 mmHg 78%
16:00 +6°C° 0 mm 4 mps 748 mmHg 80%
17:00 +6°C° 0 mm 4 mps 747 mmHg 83%
18:00 +5°C° 0 mm 4 mps 746 mmHg 86%
19:00 +6°C° 0.4 mm 4 mps 746 mmHg 87%
20:00 +6°C° 0.4 mm 5 mps 746 mmHg 88%
21:00 +5°C° 0.4 mm 6 mps 745 mmHg 89%
22:00 +5°C° 0.3 mm 6 mps 745 mmHg 89%
23:00 +6°C° 0.3 mm 5 mps 744 mmHg 89%

Mañana, 23 Octubre, Viernes

Tiempo Temperatura Precipitaciones Viento Presión Humedad
00:00 +6°C° 0.3 mm 5 mps 743 mmHg 89%
01:00 +7°C° 0 mm 5 mps 742 mmHg 88%
02:00 +7°C° 0 mm 5 mps 742 mmHg 87%
03:00 +7°C° 0 mm 6 mps 742 mmHg 87%
04:00 +7°C° 0.1 mm 6 mps 741 mmHg 88%
05:00 +8°C° 0.1 mm 6 mps 741 mmHg 88%
06:00 +9°C° 0.1 mm 6 mps 740 mmHg 89%
07:00 +9°C° 0 mm 6 mps 741 mmHg 87%
08:00 +10°C° 0 mm 6 mps 741 mmHg 85%
09:00 +10°C° 0 mm 6 mps 741 mmHg 82%
10:00 +11°C° 0 mm 7 mps 741 mmHg 80%
11:00 +11°C° 0 mm 7 mps 741 mmHg 78%
12:00 +12°C° 0 mm 7 mps 742 mmHg 76%
13:00 +11°C° 0 mm 7 mps 742 mmHg 76%
14:00 +11°C° 0 mm 6 mps 742 mmHg 76%
15:00 +11°C° 0 mm 6 mps 742 mmHg 76%
16:00 +10°C° 0 mm 5 mps 742 mmHg 80%
17:00 +11°C° 0 mm 4 mps 742 mmHg 84%
18:00 +10°C° 0 mm 4 mps 741 mmHg 87%
19:00 +10°C° 0.6 mm 4 mps 741 mmHg 89%
20:00 +10°C° 0.6 mm 4 mps 740 mmHg 91%
21:00 +10°C° 0.6 mm 5 mps 740 mmHg 93%
22:00 +10°C° 0.7 mm 5 mps 740 mmHg 91%
23:00 +11°C° 0.7 mm 6 mps 739 mmHg 89%

Pasado mañana, 24 Octubre, Sábado

Tiempo Temperatura Precipitaciones Viento Presión Humedad
00:00 +11°C° 0.7 mm 7 mps 739 mmHg 87%
01:00 +10°C° 0.1 mm 6 mps 739 mmHg 88%
02:00 +10°C° 0.1 mm 6 mps 739 mmHg 89%
03:00 +9°C° 0.1 mm 5 mps 740 mmHg 90%
04:00 +9°C° 0 mm 5 mps 740 mmHg 90%
05:00 +8°C° 0 mm 5 mps 740 mmHg 91%
06:00 +8°C° 0 mm 5 mps 740 mmHg 92%
07:00 +8°C° 0 mm 5 mps 741 mmHg 89%
08:00 +8°C° 0 mm 5 mps 741 mmHg 87%
09:00 +8°C° 0 mm 5 mps 742 mmHg 84%
10:00 +9°C° 0 mm 5 mps 742 mmHg 80%
11:00 +10°C° 0 mm 4 mps 743 mmHg 75%
12:00 +11°C° 0 mm 4 mps 743 mmHg 70%
13:00 +11°C° 0 mm 4 mps 743 mmHg 70%
14:00 +11°C° 0 mm 4 mps 743 mmHg 71%
15:00 +11°C° 0 mm 4 mps 744 mmHg 71%
16:00 +10°C° 0 mm 3 mps 744 mmHg 73%
17:00 +10°C° 0 mm 3 mps 744 mmHg 76%
18:00 +9°C° 0 mm 3 mps 744 mmHg 79%
19:00 +9°C° 0 mm 2 mps 744 mmHg 80%
20:00 +9°C° 0 mm 2 mps 744 mmHg 81%
21:00 +9°C° 0 mm 2 mps 744 mmHg 82%
22:00 +8°C° 0 mm 2 mps 744 mmHg 83%
23:00 +8°C° 0 mm 2 mps 744 mmHg 84%

, 25 Octubre, Domingo

Tiempo Temperatura Precipitaciones Viento Presión Humedad
00:00 +8°C° 0 mm 2 mps 744 mmHg 85%
01:00 +8°C° 0 mm 2 mps 743 mmHg 85%
02:00 +8°C° 0 mm 2 mps 743 mmHg 85%
03:00 +8°C° 0 mm 2 mps 743 mmHg 86%
04:00 +9°C° 0.6 mm 1 mps 743 mmHg 89%
05:00 +8°C° 0.6 mm 1 mps 743 mmHg 91%
06:00 +8°C° 0.6 mm 1 mps 743 mmHg 94%
07:00 +8°C° 0.4 mm 1 mps 743 mmHg 94%
08:00 +7°C° 0.4 mm 2 mps 743 mmHg 94%
09:00 +7°C° 0.4 mm 2 mps 743 mmHg 93%
10:00 +8°C° 0.1 mm 3 mps 743 mmHg 88%
11:00 +8°C° 0.1 mm 3 mps 743 mmHg 83%
12:00 +8°C° 0.1 mm 4 mps 744 mmHg 78%
13:00 +8°C° 0 mm 4 mps 744 mmHg 77%
14:00 +8°C° 0 mm 4 mps 744 mmHg 76%
15:00 +9°C° 0 mm 3 mps 745 mmHg 75%
16:00 +9°C° 0.1 mm 3 mps 745 mmHg 80%
17:00 +8°C° 0.1 mm 3 mps 745 mmHg 85%
18:00 +8°C° 0.1 mm 2 mps 746 mmHg 90%
19:00 +8°C° 0 mm 3 mps 746 mmHg 89%
20:00 +8°C° 0 mm 3 mps 747 mmHg 89%
21:00 +7°C° 0 mm 4 mps 747 mmHg 89%
22:00 +7°C° 0 mm 4 mps 748 mmHg 88%
23:00 +7°C° 0 mm 5 mps 748 mmHg 87%

25 Octubre, Domingo

Tiempo Temperatura Precipitaciones Viento Presión Humedad
00:00 +8°C° 0 mm 2 mps 744 mmHg 85%
01:00 +8°C° 0 mm 2 mps 743 mmHg 85%
02:00 +8°C° 0 mm 2 mps 743 mmHg 85%
03:00 +8°C° 0 mm 2 mps 743 mmHg 86%
04:00 +9°C° 0.6 mm 1 mps 743 mmHg 89%
05:00 +8°C° 0.6 mm 1 mps 743 mmHg 91%
06:00 +8°C° 0.6 mm 1 mps 743 mmHg 94%
07:00 +8°C° 0.4 mm 1 mps 743 mmHg 94%
08:00 +7°C° 0.4 mm 2 mps 743 mmHg 94%
09:00 +7°C° 0.4 mm 2 mps 743 mmHg 93%
10:00 +8°C° 0.1 mm 3 mps 743 mmHg 88%
11:00 +8°C° 0.1 mm 3 mps 743 mmHg 83%
12:00 +8°C° 0.1 mm 4 mps 744 mmHg 78%
13:00 +8°C° 0 mm 4 mps 744 mmHg 77%
14:00 +8°C° 0 mm 4 mps 744 mmHg 76%
15:00 +9°C° 0 mm 3 mps 745 mmHg 75%
16:00 +9°C° 0.1 mm 3 mps 745 mmHg 80%
17:00 +8°C° 0.1 mm 3 mps 745 mmHg 85%
18:00 +8°C° 0.1 mm 2 mps 746 mmHg 90%
19:00 +8°C° 0 mm 3 mps 746 mmHg 89%
20:00 +8°C° 0 mm 3 mps 747 mmHg 89%
21:00 +7°C° 0 mm 4 mps 747 mmHg 89%
22:00 +7°C° 0 mm 4 mps 748 mmHg 88%
23:00 +7°C° 0 mm 5 mps 748 mmHg 87%

26 Octubre, Lunes

Tiempo Temperatura Precipitaciones Viento Presión Humedad
00:00 +7°C° 0 mm 5 mps 749 mmHg 86%
01:00 +6°C° 0 mm 5 mps 749 mmHg 86%
02:00 +6°C° 0 mm 4 mps 749 mmHg 86%
03:00 +5°C° 0 mm 4 mps 750 mmHg 86%
04:00 +5°C° 0 mm 4 mps 750 mmHg 88%
05:00 +4°C° 0 mm 3 mps 751 mmHg 90%
06:00 +3°C° 0 mm 3 mps 752 mmHg 92%
07:00 +3°C° 0 mm 3 mps 752 mmHg 91%
08:00 +3°C° 0 mm 3 mps 753 mmHg 90%
09:00 +4°C° 0 mm 3 mps 753 mmHg 88%
10:00 +4°C° 0 mm 3 mps 754 mmHg 80%
11:00 +5°C° 0 mm 3 mps 754 mmHg 72%
12:00 +7°C° 0 mm 3 mps 754 mmHg 64%
13:00 +7°C° 0 mm 2 mps 754 mmHg 62%
14:00 +8°C° 0 mm 2 mps 754 mmHg 60%
15:00 +8°C° 0 mm 2 mps 755 mmHg 58%
16:00 +7°C° 0 mm 2 mps 755 mmHg 63%
17:00 +7°C° 0 mm 1 mps 755 mmHg 69%
18:00 +6°C° 0 mm 1 mps 755 mmHg 74%
19:00 +5°C° 0 mm 1 mps 755 mmHg 76%
20:00 +5°C° 0 mm 1 mps 756 mmHg 78%
21:00 +5°C° 0 mm 1 mps 756 mmHg 80%
22:00 +4°C° 0 mm 1 mps 756 mmHg 81%
23:00 +4°C° 0 mm 1 mps 756 mmHg 82%

27 Octubre, Martes

Tiempo Temperatura Precipitaciones Viento Presión Humedad
00:00 +4°C° 0 mm 1 mps 757 mmHg 82%
01:00 +3°C° 0 mm 1 mps 757 mmHg 83%
02:00 +2°C° 0 mm 2 mps 757 mmHg 83%
03:00 +2°C° 0 mm 2 mps 757 mmHg 84%
04:00 +2°C° 0 mm 2 mps 757 mmHg 84%
05:00 +2°C° 0 mm 2 mps 757 mmHg 85%
06:00 +1°C° 0 mm 2 mps 757 mmHg 85%
07:00 +2°C° 0 mm 2 mps 758 mmHg 83%
08:00 +2°C° 0 mm 2 mps 758 mmHg 81%
09:00 +2°C° 0 mm 3 mps 758 mmHg 79%
10:00 +3°C° 0 mm 3 mps 758 mmHg 74%
11:00 +4°C° 0 mm 3 mps 758 mmHg 69%
12:00 +7°C° 0 mm 3 mps 758 mmHg 64%
13:00 +7°C° 0 mm 3 mps 758 mmHg 63%
14:00 +7°C° 0 mm 3 mps 758 mmHg 62%
15:00 +7°C° 0 mm 3 mps 757 mmHg 61%
16:00 +5°C° 0 mm 3 mps 757 mmHg 66%
17:00 +4°C° 0 mm 3 mps 757 mmHg 72%
18:00 +3°C° 0 mm 3 mps 757 mmHg 77%
19:00 +3°C° 0 mm 3 mps 757 mmHg 77%
20:00 +3°C° 0 mm 3 mps 757 mmHg 77%
21:00 +3°C° 0 mm 3 mps 756 mmHg 78%
22:00 +3°C° 0 mm 3 mps 756 mmHg 77%
23:00 +3°C° 0 mm 3 mps 756 mmHg 77%
Mostrar más

Necesitamos Su Consentimiento

Meteoprog y nuestros Proveedores de Servicios pueden almacenar y acceder a sus datos personales como cookies, identificadores de dispositivo u otras tecnologías similares de su dispositivo y procesar dichos datos para personalizar contenido y anuncios, además de ofrecer funciones de redes sociales y analizar el tráfico.

  • Almacenar y/o acceder a información en su dispositivo

    Se puede almacenar o acceder a cookies, identificadores de dispositivo u otra información de su dispositivo para los fines anteriormente indicados.

  • Anuncios y contenido personalizados, medición de anuncios y contenido, percepciones del público, y desarrollo de productos

    Los anuncios y el contenido pueden personalizarse en base a su perfil. Se pueden añadir más datos para personalizar mejor los anuncios y contenidos. Se puede medir el rendimiento de los anuncios y contenidos. Se puede obtener la percepción sobre el público que ha visto los anuncios y contenidos. Dichos datos pueden usarse para desarrollar o mejorar la experiencia del usuario, sistemas y software.

Al hacer clic en ‘Estoy De Acuerdo’ usted permitirá el uso de las cookies, identificadores de dispositivo, balizas web u otras tecnologías similares indicadas. Su configuración puede cambiarse desde el navegador de su dispositivo.

Para ciertos fines, los intereses legítimos pueden ser considerados por encima del consentimiento. Puede leer más sobre ello en nuestra Política de Privacidad y Cookies.